Location: Beaurecueil
(43.5122°N, 5.5450°E)
Time: 13:51:46
(UTC+00:00)

Cosmos 1937 Rocket - Pass Details

Date: 18 September 2020
Orbit: 747 x 779 km, 74.0° (Epoch: 30 October)

Event Time Altitude Azimuth Distance (km) Brightness Sun altitude
Rises 18:52:28 0° 207° (SSW) 3,234 6.9 -13.5°
Reaches altitude 10° 18:54:52 10° 211° (SSW) 2,307 6.2 -13.9°
Maximum altitude 19:00:04 64° 293° (WNW) 849 4.0 -14.8°
Drops below altitude 10° 19:05:15 10° 15° (NNE) 2,302 6.0 -15.7°
Sets 19:07:39 0° 18° (NNE) 3,226 6.7 -16.1°
